Location: Rounton
(54.4000°N, 1.3500°W)
Time: 22:29:51
(UTC+00:00)

Explorer 7 - Pass Details

Date: 02 December 2021
Orbit: 483 x 674 km, 50.3° (Epoch: 17 January)

Event Time Altitude Azimuth Distance (km) Brightness Sun altitude
Rises 10:03:23 0° 268° (W) 2,680 10.1 9.9°
Reaches altitude 10° 10:05:44 10° 261° (W) 1,758 9.3 10.1°
Maximum altitude 10:09:29 42° 190° (S) 733 8.3 10.3°
Drops below altitude 10° 10:13:05 10° 119° (ESE) 1,685 10.3 10.5°
Sets 10:15:17 0° 112° (ESE) 2,553 11.0 10.6°
